sat.trackr.live / text

‹ back to catalog

EOSSAT-1

NORAD 55053 · 2023-001AW

PAYLOAD ACTIVE UNKNOWN

§ Identity

Operator
Country
SAFR
Launch date
2023-01-03
Launch site
AFETR
Launch vehicle
Mass (kg)
RCS (m²)

External: N2YO · Heavens-Above · Gunter

§ Orbital elements

Epoch: 2026-05-25T02:42:04.598208Z

Period
93.91 min
Inclination
97.3248°
Eccentricity
0.0009203
Mean motion
15.33308355 rev/d
Perigee alt
459.7 km
Apogee alt
472.2 km
Semi-major
6,844.1 km
B*
1.4415e-4
RAAN
205.9205°
Arg perigee
188.8434°
Mean anomaly
171.2648°
Rev number
18,838

§ Raw data

EOSSAT-11 55053U 23001AW  26145.11255322  .00004566  00000+0  14415-3 0  99912 55053  97.3248 205.9205 0009203 188.8434 171.2648 15.33308355188389

JSON: /api/v1/satellites/55053 · /tle

For live sub-satellite position, see the globe view (requires WebGL).

§ Visibility from observer

Set your observer location to see the next 7 days of passes ≥ 10°. The values pass through the URL so the page stays shareable.

No JS? Fill the form by hand. The geolocation button needs JavaScript.